Regional Weather Roundup
Issued by NWS

Home | Current Version | Previous Version | Text Only | Print | Product List | Glossary On
Versions: 1 2 3 4 5 6 7 8 9 10 11 12 13 14 15 16 17 18 19 20 21 22 23 24 25 26 27 28 29 30 31 32 33 34 35 36 37 38 39 40 41 42 43 44 45 46 47 48 49 50
000
ASUS43 KLMK 280810
RWRKY
KENTUCKY REGIONAL WEATHER ROUNDUP
NATIONAL WEATHER SERVICE LOUISVILLE KY
400 AM EDT THU JUL 28 2016

NOTE "FAIR" INDICATES FEW OR NO CLOUDS BELOW 12,000 FEET
WITH NO SIGNIFICANT WEATHER AND/OR OBSTRUCTIONS TO VISIBILITY.

KYZ001>023-026-027-061>063-070>075-280900-
WESTERN AND SOUTH CENTRAL KENTUCKY

CITY           SKY/WX    TMP DP  RH WIND       PRES   REMARKS
PADUCAH        LGT RAIN  73  71  93 SE5       29.89F
HENDERSON      NOT AVBL
OWENSBORO      LGT RAIN  73  73 100 S3        29.90F
HOPKINSVILLE   RAIN      72  72 100 E6        29.92S FOG
BOWLING GREEN  CLOUDY    75  73  93 CALM      29.92F
GLASGOW        CLOUDY    74  74 100 SE5       29.92F
$$

KYZ024-025-028>034-038-045-046-053-280900-
NORTH CENTRAL KENTUCKY

CITY           SKY/WX    TMP DP  RH WIND       PRES   REMARKS
LOUISVILLE/SDF LGT RAIN  75  73  93 SE8       29.90F
LOUISVILLE/LOU RAIN      74  72  93 E7        29.91F FOG
FORT KNOX      LGT RAIN  73  72  94 NE7       29.88F
$$

KYZ035>037-039>044-047>052-055>060-089>105-280900-
NORTHEAST KENTUCKY

CITY           SKY/WX    TMP DP  RH WIND       PRES   REMARKS
LEXINGTON      TSTM      74  72  93 W7        29.95S FOG
COVINGTON      LGT RAIN  75  73  93 E5        29.91F
FRANKFORT      TSTM      73  70  90 N3G20     29.95R VSB 1
$$

KYZ054-064>069-076>088-106>120-280900-
SOUTHEAST KENTUCKY

CITY           SKY/WX    TMP DP  RH WIND       PRES   REMARKS
JACKSON        MOCLDY    70  68  93 CALM      29.98S FOG
LONDON         CLOUDY    71  67  87 CALM      29.97F
SOMERSET       CLOUDY    70  70 100 CALM      29.97S
MIDDLESBORO    CLOUDY    71  71  98 W5        30.01F
MONTICELLO     PTSUNNY  N/A N/A N/A W10       29.97F
$$




USA.gov is the U.S. government's official web portal to all federal, state and local government web resources and services.